Weather History for KLSE - December, 2012

Change the Weather History Date:

Tuesday, December 11, 2012

  Actual Average Record
Temperature  
Mean Temperature 18 °F 23 °F  
Max Temperature 25 °F 30 °F 57 °F (1949)
Min Temperature 10 °F 16 °F -11 °F (1936)
Degree Days  
Heating Degree Days 47 42  
Month to date heating degree days 343 441  
Since 1 July heating degree days 1832 1941  
Cooling Degree Days 0 0  
Month to date cooling degree days 0 0  
Year to date cooling degree days 1083 782  
Moisture  
Dew Point 16 °F    
Average Humidity 84    
Maximum Humidity 100    
Minimum Humidity 68    
Precipitation  
Precipitation 0.01 in 0.05 in 0.99 in (2010)
Month to date precipitation 0.65 0.58  
Year to date precipitation 25.35 32.28  
Snow  
Snow 0.20 in 0.40 in 13.90 in (2010)
Month to date snowfall 7.4 4.2  
Since 1 July snowfall 7.5 8.5  
Snow Depth 5.00 in    
Sea Level Pressure  
Sea Level Pressure 29.97 in    
Wind  
Wind Speed 5 mph (SSW)    
Max Wind Speed 12 mph    
Max Gust Speed 15 mph    
Visibility 6 miles    
Events Fog , Snow    
T = Trace of Precipitation, MM = Missing Value Source: NWS Daily Summary

Daily Weather History Graph

Daily Weather History Graph

Search for Another Location

Airport or City:

Trip Planner

Search our weather history database for the weather conditions in past years. The results will help you decide how hot, cold, wet, or windy it might be!

Date:

Astronomy

Dec. 11, 2012 Rise Set
Actual Time 7:29 AM CST 4:27 PM CST
Civil Twilight 6:56 AM CST 5:00 PM CST
Nautical Twilight 6:20 AM CST 5:36 PM CST
Astronomical Twilight 5:45 AM CST 6:11 PM CST
Moon 5:22 AM CST (12/11) 3:08 PM CST (12/11)
Length of Visible Light 10h 03m
Length of Day
8h 57m
Waning Crescent, 4% of the Moon is Illuminated
Dec 11
Waning Crescent
Dec 13
New
Dec 19
First Quarter
Dec 28
Full
Jan 4
Last Quarter

Hourly Weather History & Observations

Time (CST) Temp. Windchill Dew Point Humidity Pressure Visibility Wind Dir Wind Speed Gust Speed Precip Events Conditions
12:21 AM 14.0 °F 5.1 °F 8.6 °F 79% 29.94 in 10.0 mi South 5.8 mph - N/A   Mostly Cloudy
12:53 AM 12.9 °F 0.7 °F 9.0 °F 84% 29.99 in 10.0 mi South 9.2 mph - N/A   Scattered Clouds
1:53 AM 12.0 °F 4.1 °F 9.0 °F 88% 29.97 in 9.0 mi South 4.6 mph - N/A   Clear
2:53 AM 10.9 °F 2.9 °F 9.0 °F 92% 29.96 in 9.0 mi SE 4.6 mph - N/A   Overcast
3:53 AM 15.1 °F 6.4 °F 10.9 °F 84% 29.93 in 10.0 mi SE 5.8 mph - N/A   Overcast
4:53 AM 17.1 °F 5.0 °F 12.0 °F 81% 29.92 in 10.0 mi SE 10.4 mph - N/A   Overcast
5:53 AM 19.0 °F 8.2 °F 14.0 °F 81% 29.92 in 10.0 mi South 9.2 mph - N/A   Overcast
6:53 AM 19.0 °F 9.0 °F 12.0 °F 74% 29.92 in 10.0 mi South 8.1 mph - N/A   Overcast
7:53 AM 19.0 °F 7.5 °F 12.9 °F 77% 29.93 in 5.0 mi South 10.4 mph - 0.00 in Snow Light Snow
8:03 AM 19.4 °F 10.4 °F 14.0 °F 80% 29.87 in 0.8 mi South 6.9 mph - 0.00 in Snow Light Snow
8:12 AM 19.4 °F 10.4 °F 14.0 °F 80% 29.87 in 2.5 mi SSW 6.9 mph - 0.00 in Snow Light Snow
8:19 AM 19.4 °F 9.5 °F 14.0 °F 80% 29.88 in 3.0 mi South 8.1 mph - 0.00 in Snow Light Snow
8:53 AM 19.0 °F 8.2 °F 15.1 °F 85% 29.94 in 4.0 mi South 9.2 mph - 0.00 in Snow Light Snow
9:53 AM 19.9 °F 11.1 °F 15.1 °F 81% 29.95 in 10.0 mi South 6.9 mph - 0.00 in   Overcast
10:37 AM 21.2 °F 11.7 °F 15.8 °F 80% 29.90 in 10.0 mi SW 8.1 mph - N/A   Overcast
10:53 AM 21.9 °F 13.4 °F 16.0 °F 78% 29.96 in 10.0 mi SW 6.9 mph - N/A   Overcast
11:53 AM 24.1 °F 14.4 °F 16.0 °F 71% 29.96 in 10.0 mi West 9.2 mph - N/A   Overcast
12:18 PM 24.8 °F 19.1 °F 15.8 °F 69% 29.90 in 10.0 mi WSW 4.6 mph - N/A   Overcast
12:53 PM 24.1 °F 14.4 °F 17.1 °F 75% 29.96 in 10.0 mi SSW 9.2 mph - N/A   Overcast
1:53 PM 24.1 °F 14.4 °F 18.0 °F 77% 29.96 in 9.0 mi SSW 9.2 mph - N/A   Overcast
2:12 PM 24.8 °F 16.1 °F 17.6 °F 74% 29.90 in 5.0 mi SW 8.1 mph - 0.00 in Snow Light Snow
2:20 PM 24.8 °F 16.9 °F 17.6 °F 74% 29.91 in 8.0 mi WSW 6.9 mph - 0.00 in   Overcast
2:53 PM 24.1 °F 16.0 °F 18.0 °F 77% 29.98 in 3.0 mi SW 6.9 mph - 0.00 in Snow Light Snow
3:53 PM 24.1 °F 18.2 °F 19.9 °F 84% 29.99 in 4.0 mi SSW 4.6 mph - 0.00 in Snow Light Snow
4:10 PM 24.8 °F 19.1 °F 19.4 °F 80% 29.93 in 9.0 mi SSE 4.6 mph - 0.00 in   Overcast
4:53 PM 24.1 °F - 19.9 °F 84% 30.00 in 10.0 mi Calm Calm - 0.00 in   Overcast
5:53 PM 24.1 °F - 19.9 °F 84% 30.01 in 6.0 mi Calm Calm - 0.00 in Snow Light Snow
6:53 PM 24.1 °F - 21.0 °F 88% 30.03 in 5.0 mi Calm Calm - 0.01 in Snow Light Snow
7:02 PM 24.8 °F - 21.2 °F 86% 29.97 in 5.0 mi Calm Calm - 0.00 in Snow Light Snow
7:53 PM 21.9 °F - 19.9 °F 92% 30.04 in 5.0 mi Calm Calm - 0.00 in   Mostly Cloudy
8:18 PM 19.4 °F 14.3 °F 15.8 °F 86% 30.00 in 1.5 mi SW 3.5 mph - N/A   Scattered Clouds
8:53 PM 18.0 °F - 17.1 °F 96% 30.06 in 2.0 mi Calm Calm - N/A   Scattered Clouds
9:01 PM 17.6 °F - 17.6 °F 100% 30.01 in 0.8 mi Calm Calm - N/A   Mostly Cloudy
9:18 PM 15.8 °F - 14.0 °F 93% 30.02 in 0.2 mi Calm Calm - N/A Fog Light Freezing Fog
9:28 PM 21.2 °F - 17.6 °F 86% 30.02 in 1.0 mi Calm Calm - N/A   Overcast
9:32 PM 21.2 °F - 17.6 °F 86% 30.02 in 3.0 mi Calm Calm - N/A   Overcast
9:53 PM 19.9 °F - 19.0 °F 96% 30.08 in 7.0 mi Calm Calm - N/A   Overcast
10:53 PM 21.9 °F - 19.9 °F 92% 30.09 in 7.0 mi Calm Calm - N/A   Overcast
11:53 PM 23.0 °F 18.4 °F 21.0 °F 92% 30.10 in 8.0 mi SE 3.5 mph - N/A   Overcast